Weather in Irta

Russia / Arkhangel'skaya Oblast'     62°05′12″N   48°51′05″E
temp.,
°C
wind,
m/s
gust,
m/s
humid.,
%
clouds,
%
prec.,
mm/h
press.,
hPa
HPBL,
m
28 september, tue
tue2800:00+1e11905 0.0 103210
03:000ne11927 0.0 103310
06:000nnw1192100 0.0 103310
09:00+5nnw12708 0.0 1033295
12:00+9nw2358100 0.0 1032803
15:00+9nnw2470100 0.0 1032892
18:00+4nnw229446 0.0 103234
21:00+4nw1296100 0.0 103248
29 september, wed
wed2900:00+6wnw1394100 0.0 103290
03:00+6nw1496100 0.0 1032111
06:00+4n2298100 0.0 103248
09:00+7nne138484 0.0 1032306
12:00+10n236651 0.0 1031900
15:00+10nnw1366100 0.0 1031809
18:00+7wnw1184100 0.0 103010
21:00+7w1388100 0.0 102980
30 september, thu
thu3000:00+7wsw259483 0.0 1029110
03:00+6w279873 0.0 1028178
06:00+5wnw289771 0.0 1027240
09:00+9nnw387993 0.0 1027454
12:00+12nnw35678 0.0 1027754
15:00+12nnw36698 0.0 1027870
18:00+8nnw249158 0.0 102889
21:00+6nnw259674 0.0 102899
1 october, fri
fri100:00+7nnw2591100 0.0 1028197
03:00+7nnw2492100 0.0 1028242
06:00+6nnw1393100 0.0 1029129
09:00+7nnw1288100 0.0 1029238
12:00+9nw1281100 0.0 1029454
15:00+10wnw1376100 0.0 1029569
18:00+8w118198 0.0 102915
21:00+6wnw229488 0.0 102930
2 october, sat
sat200:00+5w229599 0.0 102946
03:00+4wnw229796 0.0 102932
06:00+3wnw229811 0.0 102928
09:00+8wnw23836 0.0 1029322
12:00+11wnw24645 0.0 1029871
15:00+11w24645 0.0 10291017
18:00+6w228832 0.0 103041
21:00+5w229463 0.0 103031